When you browse on this site, cookies collect data to enhance your experience and personalize the content and advertising you see.
Visit our Privacy Policy to learn more. By continuing to use the site, you agree to this use of cookies and data.
  • In Hungary
  • List of Countries
  • For 7 days
  • Water Temperature
  • Weather Map
  • News
  • Weather Widgets
  • user-avatar
    Login

    Hourly Weather Bazovyy

    Today, 24 October, Thursday

    Time Temperature Precipitation Wind Pressure Humidity
    00:00 +12°C° 0 mm 2 mps 737 mmHg 63%
    01:00 +10°C° 0 mm 2 mps 737 mmHg 64%
    02:00 +10°C° 0 mm 2 mps 737 mmHg 66%
    03:00 +11°C° 0 mm 1 mps 737 mmHg 67%
    04:00 +9°C° 0 mm 2 mps 737 mmHg 69%
    05:00 +9°C° 0 mm 2 mps 737 mmHg 70%
    06:00 +9°C° 0 mm 2 mps 737 mmHg 71%
    07:00 +10°C° 0 mm 2 mps 737 mmHg 67%
    08:00 +13°C° 0 mm 2 mps 737 mmHg 62%
    09:00 +14°C° 0 mm 2 mps 737 mmHg 57%
    10:00 +16°C° 0 mm 3 mps 737 mmHg 51%
    11:00 +17°C° 0 mm 3 mps 737 mmHg 44%
    12:00 +19°C° 0 mm 3 mps 737 mmHg 38%
    13:00 +19°C° 0 mm 3 mps 737 mmHg 38%
    14:00 +19°C° 0 mm 3 mps 737 mmHg 38%
    15:00 +20°C° 0 mm 3 mps 737 mmHg 38%
    16:00 +18°C° 0 mm 3 mps 736 mmHg 43%
    17:00 +17°C° 0 mm 3 mps 736 mmHg 47%
    18:00 +14°C° 0 mm 3 mps 736 mmHg 51%
    19:00 +14°C° 0 mm 3 mps 736 mmHg 52%
    20:00 +13°C° 0 mm 3 mps 736 mmHg 52%
    21:00 +12°C° 0 mm 3 mps 736 mmHg 53%
    22:00 +12°C° 0 mm 3 mps 736 mmHg 54%
    23:00 +12°C° 0 mm 3 mps 736 mmHg 55%

    Tomorrow, 25 October, Friday

    Time Temperature Precipitation Wind Pressure Humidity
    00:00 +11°C° 0 mm 3 mps 736 mmHg 57%
    01:00 +11°C° 0 mm 3 mps 735 mmHg 58%
    02:00 +11°C° 0 mm 3 mps 735 mmHg 59%
    03:00 +10°C° 0 mm 3 mps 735 mmHg 60%
    04:00 +10°C° 0 mm 3 mps 735 mmHg 62%
    05:00 +10°C° 0 mm 3 mps 735 mmHg 64%
    06:00 +10°C° 0 mm 3 mps 735 mmHg 67%
    07:00 +11°C° 0 mm 3 mps 735 mmHg 65%
    08:00 +12°C° 0 mm 3 mps 735 mmHg 63%
    09:00 +13°C° 0 mm 4 mps 736 mmHg 62%
    10:00 +15°C° 0 mm 4 mps 736 mmHg 56%
    11:00 +17°C° 0 mm 4 mps 736 mmHg 50%
    12:00 +17°C° 0 mm 5 mps 735 mmHg 45%
    13:00 +19°C° 0 mm 5 mps 735 mmHg 44%
    14:00 +19°C° 0 mm 5 mps 735 mmHg 44%
    15:00 +19°C° 0 mm 5 mps 735 mmHg 43%
    16:00 +17°C° 0 mm 5 mps 735 mmHg 48%
    17:00 +17°C° 0 mm 4 mps 735 mmHg 54%
    18:00 +14°C° 0 mm 4 mps 735 mmHg 59%
    19:00 +14°C° 0 mm 4 mps 735 mmHg 61%
    20:00 +13°C° 0 mm 3 mps 735 mmHg 63%
    21:00 +13°C° 0 mm 3 mps 735 mmHg 65%
    22:00 +12°C° 0 mm 3 mps 735 mmHg 66%
    23:00 +12°C° 0 mm 3 mps 735 mmHg 68%

    Day after tomorrow, 26 October, Saturday

    Time Temperature Precipitation Wind Pressure Humidity
    00:00 +11°C° 0 mm 3 mps 735 mmHg 70%
    01:00 +11°C° 0 mm 3 mps 735 mmHg 73%
    02:00 +10°C° 0 mm 3 mps 735 mmHg 77%
    03:00 +10°C° 0 mm 3 mps 735 mmHg 80%
    04:00 +9°C° 0 mm 3 mps 735 mmHg 83%
    05:00 +9°C° 0 mm 2 mps 735 mmHg 86%
    06:00 +9°C° 0 mm 2 mps 735 mmHg 89%
    07:00 +10°C° 0 mm 3 mps 736 mmHg 85%
    08:00 +11°C° 0 mm 3 mps 736 mmHg 82%
    09:00 +12°C° 0 mm 4 mps 736 mmHg 78%
    10:00 +14°C° 0 mm 4 mps 736 mmHg 72%
    11:00 +16°C° 0 mm 3 mps 736 mmHg 66%
    12:00 +18°C° 0 mm 3 mps 736 mmHg 60%
    13:00 +18°C° 0 mm 3 mps 736 mmHg 59%
    14:00 +18°C° 0 mm 3 mps 736 mmHg 57%
    15:00 +18°C° 0 mm 3 mps 736 mmHg 56%
    16:00 +17°C° 0 mm 3 mps 736 mmHg 62%
    17:00 +16°C° 0 mm 3 mps 736 mmHg 68%
    18:00 +13°C° 0 mm 3 mps 736 mmHg 74%
    19:00 +13°C° 0 mm 3 mps 736 mmHg 78%
    20:00 +13°C° 0 mm 2 mps 736 mmHg 82%
    21:00 +13°C° 0 mm 2 mps 736 mmHg 86%
    22:00 +12°C° 0 mm 2 mps 736 mmHg 87%
    23:00 +12°C° 0 mm 1 mps 736 mmHg 88%

    , 27 October, Sunday

    Time Temperature Precipitation Wind Pressure Humidity
    00:00 +12°C° 0 mm 1 mps 736 mmHg 89%
    01:00 +12°C° 0 mm 1 mps 736 mmHg 88%
    02:00 +12°C° 0 mm 1 mps 736 mmHg 87%
    03:00 +11°C° 0 mm 1 mps 736 mmHg 86%
    04:00 +11°C° 0 mm 1 mps 736 mmHg 85%
    05:00 +11°C° 0 mm 1 mps 736 mmHg 84%
    06:00 +11°C° 0 mm 1 mps 736 mmHg 83%
    07:00 +12°C° 0 mm 1 mps 737 mmHg 75%
    08:00 +14°C° 0 mm 1 mps 737 mmHg 67%
    09:00 +15°C° 0 mm 2 mps 737 mmHg 59%
    10:00 +17°C° 0 mm 2 mps 737 mmHg 53%
    11:00 +18°C° 0 mm 3 mps 737 mmHg 47%
    12:00 +20°C° 0 mm 3 mps 737 mmHg 41%
    13:00 +20°C° 0 mm 3 mps 737 mmHg 41%
    14:00 +20°C° 0 mm 3 mps 736 mmHg 41%
    15:00 +20°C° 0 mm 3 mps 736 mmHg 40%
    16:00 +19°C° 0 mm 3 mps 736 mmHg 45%
    17:00 +17°C° 0 mm 2 mps 736 mmHg 49%
    18:00 +16°C° 0 mm 2 mps 736 mmHg 54%
    19:00 +16°C° 0 mm 2 mps 736 mmHg 55%
    20:00 +15°C° 0 mm 1 mps 736 mmHg 56%
    21:00 +15°C° 0 mm 1 mps 736 mmHg 57%
    22:00 +14°C° 0 mm 1 mps 736 mmHg 58%
    23:00 +14°C° 0 mm 1 mps 736 mmHg 59%

    27 October, Sunday

    Time Temperature Precipitation Wind Pressure Humidity
    00:00 +12°C° 0 mm 1 mps 736 mmHg 89%
    01:00 +12°C° 0 mm 1 mps 736 mmHg 88%
    02:00 +12°C° 0 mm 1 mps 736 mmHg 87%
    03:00 +11°C° 0 mm 1 mps 736 mmHg 86%
    04:00 +11°C° 0 mm 1 mps 736 mmHg 85%
    05:00 +11°C° 0 mm 1 mps 736 mmHg 84%
    06:00 +11°C° 0 mm 1 mps 736 mmHg 83%
    07:00 +12°C° 0 mm 1 mps 737 mmHg 75%
    08:00 +14°C° 0 mm 1 mps 737 mmHg 67%
    09:00 +15°C° 0 mm 2 mps 737 mmHg 59%
    10:00 +17°C° 0 mm 2 mps 737 mmHg 53%
    11:00 +18°C° 0 mm 3 mps 737 mmHg 47%
    12:00 +20°C° 0 mm 3 mps 737 mmHg 41%
    13:00 +20°C° 0 mm 3 mps 737 mmHg 41%
    14:00 +20°C° 0 mm 3 mps 736 mmHg 41%
    15:00 +20°C° 0 mm 3 mps 736 mmHg 40%
    16:00 +19°C° 0 mm 3 mps 736 mmHg 45%
    17:00 +17°C° 0 mm 2 mps 736 mmHg 49%
    18:00 +16°C° 0 mm 2 mps 736 mmHg 54%
    19:00 +16°C° 0 mm 2 mps 736 mmHg 55%
    20:00 +15°C° 0 mm 1 mps 736 mmHg 56%
    21:00 +15°C° 0 mm 1 mps 736 mmHg 57%
    22:00 +14°C° 0 mm 1 mps 736 mmHg 58%
    23:00 +14°C° 0 mm 1 mps 736 mmHg 59%

    28 October, Monday

    Time Temperature Precipitation Wind Pressure Humidity
    00:00 +14°C° 0 mm 1 mps 736 mmHg 60%
    01:00 +13°C° 0 mm 1 mps 736 mmHg 61%
    02:00 +13°C° 0 mm 1 mps 735 mmHg 63%
    03:00 +13°C° 0 mm 1 mps 735 mmHg 64%
    04:00 +12°C° 0 mm 1 mps 735 mmHg 65%
    05:00 +12°C° 0 mm 1 mps 735 mmHg 67%
    06:00 +12°C° 0 mm 1 mps 735 mmHg 68%
    07:00 +13°C° 0 mm 1 mps 735 mmHg 63%
    08:00 +14°C° 0 mm 1 mps 735 mmHg 59%
    09:00 +16°C° 0 mm 1 mps 735 mmHg 54%
    10:00 +18°C° 0 mm 1 mps 735 mmHg 50%
    11:00 +20°C° 0 mm 1 mps 735 mmHg 46%
    12:00 +21°C° 0 mm 1 mps 734 mmHg 41%
    13:00 +21°C° 0 mm 1 mps 734 mmHg 40%
    14:00 +20°C° 0 mm 0 mps 734 mmHg 39%
    15:00 +20°C° 0 mm 0 mps 733 mmHg 38%
    16:00 +19°C° 0 mm 0 mps 733 mmHg 42%
    17:00 +17°C° 0 mm 0 mps 733 mmHg 47%
    18:00 +16°C° 0 mm 0 mps 733 mmHg 51%
    19:00 +15°C° 0 mm 0 mps 733 mmHg 52%
    20:00 +15°C° 0 mm 0 mps 733 mmHg 54%
    21:00 +15°C° 0 mm 1 mps 733 mmHg 55%
    22:00 +14°C° 0 mm 0 mps 733 mmHg 56%
    23:00 +13°C° 0 mm 0 mps 732 mmHg 57%

    29 October, Tuesday

    Time Temperature Precipitation Wind Pressure Humidity
    00:00 +13°C° 0 mm 0 mps 732 mmHg 58%
    01:00 +13°C° 0 mm 0 mps 732 mmHg 59%
    02:00 +12°C° 0 mm 0 mps 732 mmHg 60%
    03:00 +12°C° 0 mm 0 mps 732 mmHg 61%
    04:00 +12°C° 0 mm 0 mps 732 mmHg 61%
    05:00 +12°C° 0 mm 0 mps 732 mmHg 62%
    06:00 +11°C° 0 mm 0 mps 732 mmHg 63%
    07:00 +13°C° 0 mm 0 mps 732 mmHg 59%
    08:00 +14°C° 0 mm 0 mps 732 mmHg 55%
    09:00 +16°C° 0 mm 1 mps 732 mmHg 51%
    10:00 +19°C° 0 mm 1 mps 732 mmHg 46%
    11:00 +19°C° 0 mm 2 mps 732 mmHg 41%
    12:00 +21°C° 0 mm 2 mps 732 mmHg 36%
    13:00 +21°C° 0 mm 2 mps 732 mmHg 35%
    14:00 +23°C° 0 mm 2 mps 732 mmHg 33%
    15:00 +23°C° 0 mm 2 mps 731 mmHg 32%
    16:00 +21°C° 0 mm 2 mps 731 mmHg 37%
    17:00 +19°C° 0 mm 3 mps 731 mmHg 41%
    18:00 +17°C° 0 mm 3 mps 731 mmHg 46%
    19:00 +16°C° 0 mm 2 mps 731 mmHg 48%
    20:00 +16°C° 0 mm 2 mps 731 mmHg 51%
    21:00 +15°C° 0 mm 2 mps 731 mmHg 54%
    22:00 +14°C° 0 mm 2 mps 731 mmHg 56%
    23:00 +14°C° 0 mm 2 mps 731 mmHg 57%
    Show more